TimeCEST,TemperatureF,Dew PointF,Humidity,Sea Level PressureIn,VisibilityMPH,Wind Direction,Wind SpeedMPH,Gust SpeedMPH,PrecipitationIn,Events,Conditions,WindDirDegrees,DateUTC
12:45 AM,48.2,39.2,71,29.89,-9999.0,NNW,3.5,-,N/A,,Clear,330,2012-10-09 22:45:00
1:45 AM,50.0,39.2,66,29.89,-9999.0,West,1.2,-,N/A,,Clear,260,2012-10-09 23:45:00
2:00 AM,49,40,61,29.91,31,West,2.2,,,,Partly Cloudy,260,2012-10-10 00:00:00
2:45 AM,53.6,39.2,58,29.92,-9999.0,NW,8.1,-,N/A,,Clear,310,2012-10-10 00:45:00
3:45 AM,51.8,41.0,67,29.92,-9999.0,NNW,8.1,-,N/A,,Clear,330,2012-10-10 01:45:00
4:45 AM,50.0,42.8,76,29.92,-9999.0,NNE,9.2,-,N/A,,Clear,20,2012-10-10 02:45:00
5:45 AM,51.8,44.6,76,29.92,-9999.0,North,5.8,-,N/A,,Clear,10,2012-10-10 03:45:00
6:15 AM,51.8,42.8,71,29.92,-9999.0,North,9.2,-,N/A,,Clear,360,2012-10-10 04:15:00
6:45 AM,51.8,39.2,62,29.95,-9999.0,North,8.1,-,N/A,,Clear,360,2012-10-10 04:45:00
7:00 AM,-9999,-9999,N/A,-9999,-9999.0,North,8.1,-,N/A,,Overcast,360,2012-10-10 05:00:00
7:15 AM,51.8,39.2,62,29.95,-9999.0,North,5.8,-,N/A,,Clear,360,2012-10-10 05:15:00
7:45 AM,51.8,39.2,62,29.95,-9999.0,North,5.8,-,N/A,,Clear,10,2012-10-10 05:45:00
8:00 AM,51,38,52,29.96,31,North,4.5,,,,Partly Cloudy,10,2012-10-10 06:00:00
8:15 AM,51.8,37.4,58,29.98,-9999.0,NNE,3.5,-,N/A,,Clear,20,2012-10-10 06:15:00
8:45 AM,51.8,37.4,58,29.98,-9999.0,NE,3.5,-,N/A,,Clear,40,2012-10-10 06:45:00
9:15 AM,51.8,39.2,62,29.98,-9999.0,NE,4.6,-,N/A,,Clear,50,2012-10-10 07:15:00
9:45 AM,51.8,37.4,58,29.98,-9999.0,NE,5.8,-,N/A,,Clear,40,2012-10-10 07:45:00
10:00 AM,-9999,-9999,N/A,-9999,6.2,NE,5.8,-,N/A,,Overcast,40,2012-10-10 08:00:00
10:15 AM,51.8,37.4,58,29.98,-9999.0,NE,4.6,-,N/A,,Clear,40,2012-10-10 08:15:00
10:45 AM,53.6,37.4,54,29.98,-9999.0,NE,3.5,-,N/A,,Clear,40,2012-10-10 08:45:00
11:15 AM,53.6,35.6,51,30.01,-9999.0,North,2.3,-,N/A,,Clear,350,2012-10-10 09:15:00
11:45 AM,53.6,35.6,51,30.01,-9999.0,WNW,4.6,-,N/A,,Clear,300,2012-10-10 09:45:00
12:15 PM,53.6,39.2,58,30.01,6.2,West,3.5,-,N/A,Rain,Light Rain,270,2012-10-10 10:15:00
12:45 PM,53.6,41.0,62,30.01,6.2,NW,2.3,-,N/A,Rain,Light Rain,320,2012-10-10 10:45:00
1:00 PM,-9999,-9999,N/A,-9999,6.2,Variable,3.5,-,N/A,Rain,Light Rain,0,2012-10-10 11:00:00
1:15 PM,51.8,41.0,67,29.98,6.2,NE,2.3,-,N/A,Rain,Light Rain,50,2012-10-10 11:15:00
1:45 PM,50.0,44.6,82,29.98,6.2,NNE,4.6,-,N/A,Rain,Light Rain,30,2012-10-10 11:45:00
2:00 PM,51,44,68,29.99,12,NNE,4.5,,,Rain,Light Rain,30,2012-10-10 12:00:00
2:15 PM,51.8,42.8,71,29.98,-9999.0,NE,3.5,-,N/A,,Clear,40,2012-10-10 12:15:00
2:45 PM,51.8,41.0,67,29.98,-9999.0,SE,2.3,-,N/A,,Clear,130,2012-10-10 12:45:00
3:15 PM,51.8,39.2,62,29.95,-9999.0,North,1.2,-,N/A,,Clear,360,2012-10-10 13:15:00
3:45 PM,51.8,39.2,62,29.95,-9999.0,North,3.5,-,N/A,,Clear,350,2012-10-10 13:45:00
4:00 PM,-9999,-9999,N/A,-9999,6.2,Variable,3.5,-,N/A,,Overcast,0,2012-10-10 14:00:00
4:15 PM,51.8,44.6,76,29.95,6.2,North,2.3,-,N/A,Rain,Light Rain,350,2012-10-10 14:15:00
4:45 PM,50.0,44.6,82,29.95,-9999.0,NNW,3.5,-,N/A,,Clear,330,2012-10-10 14:45:00
5:15 PM,50.0,44.6,82,29.95,-9999.0,NW,3.5,-,N/A,,Clear,320,2012-10-10 15:15:00
5:45 PM,50.0,42.8,76,29.92,-9999.0,NNW,2.3,-,N/A,,Clear,330,2012-10-10 15:45:00
6:45 PM,48.2,44.6,87,29.92,-9999.0,NNW,2.3,-,N/A,,Clear,340,2012-10-10 16:45:00
7:15 PM,48.2,42.8,82,29.92,-9999.0,NNW,4.6,-,N/A,,Clear,340,2012-10-10 17:15:00
7:45 PM,48.2,44.6,87,29.95,6.2,NNW,4.6,-,N/A,Rain,Light Rain,340,2012-10-10 17:45:00
8:00 PM,48,44,81,29.95,12,NNW,4.5,,,Rain,Light Rain,340,2012-10-10 18:00:00
8:15 PM,48.2,44.6,87,29.95,6.2,North,2.3,-,N/A,Rain,Light Rain,10,2012-10-10 18:15:00
8:45 PM,48.2,44.6,87,29.95,6.2,North,4.6,-,N/A,Rain,Light Rain,360,2012-10-10 18:45:00
9:15 PM,48.2,44.6,87,29.95,6.2,NNE,5.8,-,N/A,Rain,Light Rain,30,2012-10-10 19:15:00
9:45 PM,46.4,44.6,93,29.95,6.2,North,5.8,-,N/A,Rain,Light Rain,10,2012-10-10 19:45:00
10:45 PM,46.4,44.6,93,29.95,6.2,ENE,2.3,-,N/A,Rain,Light Rain,60,2012-10-10 20:45:00